WX0AOK Weather Reports


time (UTC)temp
C
wind
direction
speed
KPH
gust
KPH
rain 1hr
cm
rain 24hr
cm
rain mn
cm
humidity
%
barometer
mb
20260906162519 22 334 1.6 8.0 0.00 0.00 0.00 84 1019.1
20260906162010 22 79 0.0 4.8 0.00 0.00 0.00 84 1019.1
20260906161536 22 34 0.0 8.0 0.00 0.00 0.00 85 1019.2
20260906161014 22 137 1.6 9.7 0.00 0.00 0.00 85 1019.2
20260906160514 22 124 3.2 9.7 0.00 0.00 0.00 85 1019.2
20260906160031 22 84 3.2 9.7 0.00 0.00 0.00 86 1019.1
20260906155504 22 101 0.0 16.1 0.00 0.00 0.00 86 1019.1
20260906155004 22 91 3.2 16.1 0.00 0.00 0.00 86 1019.0
20260906154526 22 86 4.8 9.7 0.00 0.00 0.00 86 1019.1
20260906154003 22 96 1.6 9.7 0.00 0.00 0.00 87 1019.1
20260906153507 22 130 1.6 9.7 0.00 0.00 0.00 87 1019.1
20260906153019 22 80 3.2 8.0 0.00 0.00 0.00 87 1019.2
20260906152507 22 111 1.6 11.3 0.00 0.00 0.00 88 1019.3
20260906152008 21 255 4.8 12.9 0.00 0.00 0.00 88 1019.4
20260906151524 21 91 1.6 12.9 0.00 0.00 0.00 88 1019.4
20260906151018 21 103 1.6 8.0 0.00 0.00 0.00 89 1019.4
20260906150512 21 129 1.6 11.3 0.00 0.00 0.00 89 1019.4
20260906150028 21 110 3.2 11.3 0.00 0.00 0.00 89 1019.3
20260906145519 21 94 3.2 11.3 0.00 0.00 0.00 89 1019.4
20260906145017 21 68 4.8 9.7 0.00 0.00 0.00 89 1019.3
20260906144534 21 88 3.2 8.0 0.00 0.00 0.00 90 1019.2
20260906144004 21 114 1.6 11.3 0.00 0.00 0.00 90 1019.2
20260906143505 21 129 0.0 11.3 0.00 0.00 0.00 89 1019.2
20260906143012 21 60 1.6 11.3 0.00 0.00 0.00 89 1019.2
20260906142506 21 94 3.2 11.3 0.00 0.00 0.00 89 1019.2
20260906142008 21 89 3.2 8.0 0.00 0.00 0.00 89 1019.1
20260906141529 21 119 3.2 8.0 0.00 0.00 0.00 89 1019.1
20260906141007 21 107 1.6 8.0 0.00 0.00 0.00 90 1019.1
20260906140518 21 76 1.6 8.0 0.00 0.00 0.00 89 1019.0
20260906140026 21 351 1.6 8.0 0.00 0.00 0.00 89 1019.1
20260906135513 21 65 1.6 9.7 0.00 0.00 0.00 89 1019.1
20260906135012 21 58 1.6 9.7 0.00 0.00 0.00 89 1019.1
20260906134531 21 67 4.8 9.7 0.00 0.00 0.00 89 1019.0
20260906134018 21 82 3.2 9.7 0.00 0.00 0.00 89 1018.8
20260906133514 21 101 3.2 9.7 0.00 0.00 0.00 90 1018.8
20260906133034 21 86 4.8 9.7 0.00 0.00 0.00 90 1018.7
20260906132517 21 59 3.2 9.7 0.00 0.00 0.00 89 1018.7
20260906132004 21 94 3.2 9.7 0.00 0.00 0.00 89 1018.7
20260906131516 21 103 3.2 9.7 0.00 0.00 0.00 89 1018.6
20260906131009 21 77 4.8 8.0 0.00 0.00 0.00 91 1018.5
20260906130507 21 103 3.2 6.4 0.00 0.00 0.00 92 1018.3
20260906130021 20 95 3.2 6.4 0.00 0.00 0.00 92 1018.3
20260906125510 20 75 3.2 6.4 0.00 0.00 0.00 92 1018.3
20260906125010 20 102 1.6 6.4 0.00 0.00 0.00 93 1018.3
20260906124538 20 94 1.6 6.4 0.00 0.00 0.00 93 1018.3
20260906124015 20 76 3.2 6.4 0.00 0.00 0.00 93 1018.2
20260906123517 20 72 4.8 8.0 0.00 0.00 0.00 93 1018.2
20260906123033 20 81 4.8 8.0 0.00 0.00 0.00 94 1018.2
20260906122516 20 82 3.2 6.4 0.00 0.00 0.00 94 1018.1
20260906122018 20 98 1.6 4.8 0.00 0.00 0.00 94 1018.2
20260906121531 19 108 1.6 4.8 0.00 0.00 0.00 94 1018.3
20260906121018 19 78 3.2 4.8 0.00 0.00 0.00 94 1018.3
20260906120506 19 110 0.0 3.2 0.00 0.00 0.00 94 1018.3
20260906120018 19 90 1.6 3.2 0.00 0.00 0.00 94 1018.3
20260906115508 19 81 0.0 1.6 0.00 0.00 0.00 93 1018.1
20260906115011 19 81 0.0 3.2 0.00 0.00 0.00 93 1018.2
20260906114542 19 81 0.0 3.2 0.00 0.00 0.00 93 1018.1
20260906114014 19 101 0.0 1.6 0.00 0.00 0.00 93 1018.1
20260906113517 19 94 0.0 1.6 0.00 0.00 0.00 93 1018.1
20260906113032 19 94 0.0 3.2 0.00 0.00 0.00 93 1018.1
20260906112516 19 94 0.0 3.2 0.00 0.00 0.00 93 1018.0
20260906112020 19 79 0.0 4.8 0.00 0.00 0.00 93 1018.0
20260906111536 19 79 0.0 4.8 0.00 0.00 0.00 93 1018.0
20260906111016 19 92 0.0 4.8 0.00 0.00 0.00 93 1018.1
20260906110517 19 92 1.6 4.8 0.00 0.00 0.00 93 1018.1
20260906110031 19 92 0.0 3.2 0.00 0.00 0.00 92 1018.0
20260906105518 19 92 0.0 3.2 0.00 0.00 0.00 92 1017.8
20260906105008 19 92 0.0 3.2 0.00 0.00 0.00 92 1017.8
20260906104532 19 92 0.0 3.2 0.00 0.00 0.00 92 1017.8
20260906104009 20 92 0.0 3.2 0.00 0.00 0.00 92 1017.8
20260906103511 20 92 0.0 3.2 0.00 0.00 0.00 92 1018.0
20260906103029 20 92 0.0 0.0 0.00 0.00 0.00 92 1018.0
20260906102508 20 92 0.0 0.0 0.00 0.00 0.00 92 1017.9
20260906102003 20 92 0.0 0.0 0.00 0.00 0.00 92 1017.9
20260906101506 20 92 0.0 1.6 0.00 0.00 0.00 91 1017.9
20260906101004 20 92 0.0 3.2 0.00 0.00 0.00 91 1017.8
20260906100505 20 92 0.0 3.2 0.00 0.00 0.00 91 1017.8
20260906100014 20 92 0.0 1.6 0.00 0.00 0.00 91 1017.8
20260906095506 20 92 0.0 1.6 0.00 0.00 0.00 91 1017.8
20260906095008 20 92 0.0 1.6 0.00 0.00 0.00 91 1017.7
20260906094511 20 92 0.0 1.6 0.00 0.00 0.00 91 1017.5
20260906094002 20 92 0.0 1.6 0.00 0.00 0.00 91 1017.5
20260906093503 20 92 0.0 3.2 0.00 0.00 0.00 91 1017.6
20260906093005 20 92 1.6 3.2 0.00 0.00 0.00 91 1017.5
20260906092504 20 100 0.0 3.2 0.00 0.00 0.00 90 1017.4
20260906092003 20 88 1.6 3.2 0.00 0.00 0.00 90 1017.1
20260906091506 20 102 0.0 4.8 0.00 0.00 0.00 90 1017.1
20260906091002 20 102 0.0 4.8 0.00 0.00 0.00 90 1017.0
20260906090515 20 89 1.6 4.8 0.00 0.00 0.00 90 1017.0
20260906090018 21 94 1.6 4.8 0.00 0.00 0.00 90 1017.1
20260906085506 21 106 1.6 6.4 0.00 0.00 0.00 90 1017.1
20260906085008 21 97 1.6 6.4 0.00 0.00 0.00 90 1017.1
20260906084520 21 104 0.0 6.4 0.00 0.00 0.00 90 1017.2
20260906084007 21 87 1.6 6.4 0.00 0.00 0.00 90 1017.1
20260906083507 21 101 0.0 4.8 0.00 0.00 0.00 89 1017.0
20260906083004 21 76 0.0 4.8 0.00 0.00 0.00 89 1016.9
20260906082504 21 27 0.0 6.4 0.00 0.00 0.00 89 1016.8
20260906082003 21 100 1.6 9.7 0.00 0.00 0.00 89 1016.8
20260906081511 21 119 3.2 9.7 0.00 0.00 0.00 89 1016.8
20260906081003 21 96 1.6 6.4 0.00 0.00 0.00 89 1016.9
20260906080505 21 111 1.6 4.8 0.00 0.00 0.00 88 1016.8
20260906080010 21 104 0.0 4.8 0.00 0.00 0.00 88 1017.0
20260906075504 21 81 3.2 6.4 0.00 0.00 0.00 88 1016.9
20260906075007 21 107 1.6 6.4 0.00 0.00 0.00 88 1016.9
20260906074517 21 94 1.6 8.0 0.00 0.00 0.00 88 1016.9
20260906074005 21 102 4.8 8.0 0.00 0.00 0.00 89 1016.9
20260906073508 21 89 3.2 6.4 0.00 0.00 0.00 88 1017.0
20260906073025 21 65 1.6 6.4 0.00 0.00 0.00 88 1017.0
20260906072511 21 80 3.2 8.0 0.00 0.00 0.00 88 1017.0
20260906072014 21 70 3.2 9.7 0.00 0.00 0.00 88 1017.1
20260906071527 21 88 3.2 9.7 0.00 0.00 0.00 88 1017.2
20260906071003 21 107 1.6 6.4 0.00 0.00 0.00 88 1017.2
20260906070503 21 92 3.2 6.4 0.00 0.00 0.00 88 1017.3
20260906070007 21 102 0.0 4.8 0.00 0.00 0.00 88 1017.3
20260906065504 21 105 0.0 4.8 0.00 0.00 0.00 88 1017.4
20260906065004 21 91 1.6 6.4 0.00 0.00 0.00 88 1017.4
20260906064508 21 96 1.6 6.4 0.00 0.00 0.00 89 1017.4
20260906064007 21 76 1.6 6.4 0.00 0.00 0.00 89 1017.4
20260906063505 21 91 1.6 6.4 0.00 0.00 0.00 89 1017.4
20260906063018 21 91 1.6 4.8 0.00 0.00 0.00 89 1017.4
20260906062514 21 116 0.0 3.2 0.00 0.00 0.00 89 1017.3
20260906062010 21 116 0.0 3.2 0.00 0.00 0.00 89 1017.4
20260906061527 21 91 1.6 3.2 0.00 0.00 0.00 89 1017.4
20260906061015 21 104 0.0 3.2 0.00 0.00 0.00 89 1017.5
20260906060514 21 104 0.0 1.6 0.00 0.00 0.00 89 1017.5
20260906060029 21 103 0.0 3.2 0.00 0.00 0.00 89 1017.5
20260906055504 21 104 0.0 3.2 0.00 0.00 0.00 89 1017.5
20260906055004 21 104 0.0 3.2 0.00 0.00 0.00 89 1017.5
20260906054509 21 104 0.0 1.6 0.00 0.00 0.00 89 1017.5
20260906054003 21 104 0.0 1.6 0.00 0.00 0.00 89 1017.5
20260906053503 21 104 0.0 1.6 0.00 0.00 0.00 89 1017.5
20260906053012 21 104 0.0 0.0 0.00 0.00 0.00 89 1017.4
20260906052510 21 104 0.0 3.2 0.00 0.00 0.00 88 1017.4
20260906052011 22 104 0.0 3.2 0.00 0.00 0.00 88 1017.5
20260906051520 22 104 0.0 3.2 0.00 0.00 0.00 88 1017.5
20260906051012 22 104 0.0 3.2 0.00 0.00 0.00 88 1017.5
20260906050511 22 104 1.6 3.2 0.00 0.00 0.00 88 1017.7
20260906050030 22 104 0.0 3.2 0.00 0.00 0.00 88 1017.7
20260906045518 22 104 0.0 3.2 0.00 0.00 0.00 88 1017.8
20260906045019 22 104 0.0 3.2 0.00 0.00 0.00 87 1017.7
20260906044533 22 104 0.0 3.2 0.00 0.00 0.00 87 1017.8
20260906044002 22 86 0.0 3.2 0.00 0.00 0.00 87 1017.9
20260906043502 22 95 0.0 3.2 0.00 0.00 0.00 87 1017.9
20260906043013 22 106 0.0 6.4 0.00 0.00 0.00 87 1017.8
20260906042503 22 92 3.2 6.4 0.00 0.00 0.00 88 1017.8
20260906042007 22 86 1.6 3.2 0.00 0.00 0.00 87 1017.8
20260906041516 22 105 0.0 1.6 0.00 0.00 0.00 87 1017.9
20260906041009 22 98 0.0 4.8 0.00 0.00 0.00 87 1017.8
20260906040511 22 98 0.0 4.8 0.00 0.00 0.00 87 1017.7
20260906040029 22 106 0.0 6.4 0.00 0.00 0.00 88 1017.8
20260906035512 22 112 3.2 6.4 0.00 0.00 0.00 88 1017.8
20260906035015 22 82 0.0 3.2 0.00 0.00 0.00 87 1017.8
20260906034528 22 98 0.0 3.2 0.00 0.00 0.00 87 1017.7
20260906034015 22 98 0.0 3.2 0.00 0.00 0.00 87 1017.6
20260906033515 22 98 0.0 3.2 0.00 0.00 0.00 86 1017.6
20260906033044 22 98 0.0 3.2 0.00 0.00 0.00 86 1017.6
20260906032518 22 98 0.0 1.6 0.00 0.00 0.00 86 1017.7
20260906032003 22 98 0.0 3.2 0.00 0.00 0.00 86 1017.7
20260906031512 22 98 0.0 3.2 0.00 0.00 0.00 86 1017.6
20260906031008 22 98 0.0 3.2 0.00 0.00 0.00 86 1017.6
20260906030507 22 98 0.0 3.2 0.00 0.00 0.00 85 1017.7
20260906030021 22 98 0.0 3.2 0.00 0.00 0.00 85 1017.8
20260906025516 22 98 0.0 3.2 0.00 0.00 0.00 85 1017.7
20260906025012 22 98 0.0 1.6 0.00 0.00 0.00 85 1017.9
20260906024541 22 98 0.0 1.6 0.00 0.00 0.00 85 1017.9
20260906024014 22 98 0.0 3.2 0.00 0.00 0.00 85 1018.0
20260906023516 22 98 0.0 3.2 0.00 0.00 0.00 85 1017.9
20260906023028 22 98 0.0 3.2 0.00 0.00 0.00 85 1017.7
20260906022516 22 98 0.0 1.6 0.00 0.00 0.00 85 1017.7
20260906022015 23 98 0.0 0.0 0.00 0.00 0.00 85 1017.7
20260906021531 23 98 0.0 0.0 0.00 0.00 0.00 85 1017.5
20260906021018 23 98 0.0 3.2 0.00 0.00 0.00 84 1017.3
20260906020508 23 98 0.0 3.2 0.00 0.00 0.00 84 1017.1
20260906020014 23 96 0.0 1.6 0.00 0.00 0.00 83 1016.9
20260906015507 23 29 0.0 0.0 0.00 0.00 0.00 83 1016.7
20260906015007 23 29 0.0 0.0 0.00 0.00 0.00 83 1016.6
20260906014537 23 29 0.0 1.6 0.00 0.00 0.00 82 1016.5
20260906014012 23 29 0.0 1.6 0.00 0.00 0.00 82 1016.4
20260906013512 23 29 0.0 1.6 0.00 0.00 0.00 81 1016.3
20260906013040 24 29 0.0 1.6 0.00 0.00 0.00 81 1016.2
20260906012519 24 29 0.0 3.2 0.00 0.00 0.00 81 1016.1
20260906012004 24 29 0.0 3.2 0.00 0.00 0.00 80 1016.1
20260906011506 25 34 0.0 1.6 0.00 0.00 0.00 79 1015.9
20260906011003 25 67 0.0 1.6 0.00 0.00 0.00 78 1015.7
20260906010503 25 67 0.0 1.6 0.00 0.00 0.00 77 1015.7
20260906010012 25 67 0.0 0.0 0.00 0.00 0.00 76 1015.7
20260906005507 25 67 0.0 1.6 0.00 0.00 0.00 76 1015.8
20260906005011 26 67 0.0 1.6 0.00 0.00 0.00 75 1015.8
20260906004521 26 67 0.0 1.6 0.00 0.00 0.00 75 1015.8
20260906004010 26 67 0.0 1.6 0.00 0.00 0.00 74 1015.6
20260906003512 26 67 0.0 3.2 0.00 0.00 0.00 73 1015.5
20260906003024 27 67 0.0 3.2 0.00 0.00 0.00 73 1015.5
20260906002511 27 67 0.0 3.2 0.00 0.00 0.00 72 1015.5
20260906002012 27 67 0.0 1.6 0.00 0.00 0.00 72 1015.5
20260906001537 27 67 0.0 1.6 0.00 0.00 0.00 72 1015.5
20260906001015 27 156 0.0 3.2 0.00 0.00 0.00 71 1015.4
20260906000503 27 196 0.0 3.2 0.00 0.00 0.00 72 1015.4
20260906000010 27 122 0.0 6.4 0.00 0.00 0.00 71 1015.3
20260905235506 27 99 1.6 6.4 0.00 0.00 0.00 71 1015.3
20260905235008 27 129 0.0 6.4 0.00 0.00 0.00 71 1015.2
20260905234514 27 113 1.6 6.4 0.00 0.00 0.00 71 1015.1
20260905234019 27 83 1.6 9.7 0.00 0.00 0.00 70 1015.0
20260905233510 27 94 3.2 8.0 0.00 0.00 0.00 69 1015.2
20260905233033 27 71 1.6 6.4 0.00 0.00 0.00 70 1015.2
20260905232510 27 123 1.6 9.7 0.00 0.00 0.00 69 1015.2
20260905232013 27 68 3.2 14.5 0.00 0.00 0.00 70 1015.1
20260905231540 27 91 6.4 14.5 0.00 0.00 0.00 69 1014.9
20260905231015 27 77 3.2 9.7 0.00 0.00 0.00 69 1014.8
20260905230514 27 113 1.6 12.9 0.00 0.00 0.00 69 1014.8
20260905230030 27 108 3.2 16.1 0.00 0.00 0.00 69 1014.8
20260905225513 27 120 8.0 16.1 0.00 0.00 0.00 68 1014.8
20260905225016 27 105 6.4 12.9 0.00 0.00 0.00 68 1014.6
20260905224514 27 89 3.2 19.3 0.00 0.00 0.00 69 1014.6
20260905224005 27 98 6.4 19.3 0.00 0.00 0.00 69 1014.5
20260905223507 27 89 4.8 19.3 0.00 0.00 0.00 69 1014.4
20260905223019 27 77 11.3 20.9 0.00 0.00 0.00 68 1014.4
20260905222513 27 113 12.9 20.9 0.00 0.00 0.00 69 1014.3
20260905222012 27 93 8.0 19.3 0.00 0.00 0.00 69 1014.3
20260905221527 27 89 12.9 19.3 0.00 0.00 0.00 69 1014.3
20260905221014 27 106 8.0 17.7 0.00 0.00 0.00 69 1014.3
20260905220514 27 99 8.0 17.7 0.00 0.00 0.00 72 1014.5
20260905220029 27 101 8.0 16.1 0.00 0.00 0.00 72 1014.6
20260905215516 27 114 8.0 14.5 0.00 0.00 0.00 71 1014.7
20260905215013 27 111 3.2 14.5 0.00 0.00 0.00 73 1014.8
20260905214532 27 87 4.8 12.9 0.00 0.00 0.00 72 1014.8
20260905214015 27 122 4.8 12.9 0.00 0.00 0.00 73 1014.9
20260905213522 27 101 4.8 14.5 0.00 0.00 0.00 73 1015.0
20260905213017 27 82 8.0 14.5 0.00 0.00 0.00 72 1015.0
20260905212519 27 98 6.4 14.5 0.00 0.00 0.00 71 1014.9
20260905212008 27 98 4.8 17.7 0.00 0.00 0.00 72 1014.9
20260905211534 27 94 9.7 17.7 0.00 0.00 0.00 70 1015.0
20260905211019 27 91 11.3 19.3 0.00 0.00 0.00 71 1014.9
20260905210515 27 88 9.7 22.5 0.00 0.00 0.00 71 1014.9
20260905210038 27 95 11.3 22.5 0.00 0.00 0.00 71 1014.9
20260905205513 28 103 9.7 19.3 0.00 0.00 0.00 70 1014.9
20260905205015 28 106 12.9 20.9 0.00 0.00 0.00 70 1014.8
20260905204533 27 62 11.3 22.5 0.00 0.00 0.00 71 1014.7
20260905204017 27 79 14.5 22.5 0.00 0.00 0.00 72 1014.7
20260905203516 27 99 14.5 19.3 0.00 0.00 0.00 71 1014.8
20260905203039 27 109 11.3 22.5 0.00 0.00 0.00 73 1015.0
20260905202518 27 101 8.0 22.5 0.00 0.00 0.00 72 1015.1
20260905202018 27 89 14.5 22.5 0.00 0.00 0.00 72 1015.2
20260905201520 27 75 12.9 19.3 0.00 0.00 0.00 73 1015.3
20260905201007 27 120 14.5 24.1 0.00 0.00 0.00 75 1015.5
20260905200513 27 70 14.5 24.1 0.00 0.00 0.00 75 1015.5
20260905200033 27 94 11.3 17.7 0.00 0.00 0.00 75 1015.9
20260905195515 26 63 12.9 20.9 0.00 0.00 0.00 75 1016.1
20260905195019 26 77 12.9 20.9 0.00 0.00 0.00 76 1016.1
20260905194530 26 94 11.3 20.9 0.00 0.00 0.00 76 1016.1
20260905194015 26 80 12.9 19.3 0.00 0.00 0.00 77 1016.2
20260905193515 26 93 11.3 19.3 0.00 0.00 0.00 79 1016.2
20260905193033 26 83 12.9 17.7 0.00 0.00 0.00 77 1016.2
20260905192510 26 80 6.4 12.9 0.00 0.00 0.00 77 1016.3
20260905192006 26 92 8.0 12.9 0.00 0.00 0.00 78 1016.4
20260905191515 26 79 3.2 9.7 0.00 0.00 0.00 79 1016.5
20260905191012 26 72 3.2 9.7 0.00 0.00 0.00 79 1016.6
20260905190510 26 79 4.8 11.3 0.00 0.00 0.00 79 1016.7
20260905190023 26 88 4.8 11.3 0.00 0.00 0.00 80 1016.8
20260905185512 26 65 1.6 9.7 0.00 0.00 0.00 79 1017.0
20260905185019 26 110 4.8 9.7 0.00 0.00 0.00 79 1016.9
20260905184535 26 75 3.2 8.0 0.00 0.00 0.00 79 1016.8
20260905184018 26 70 6.4 8.0 0.00 0.00 0.00 80 1016.9
20260905183526 25 87 3.2 8.0 0.00 0.00 0.00 81 1016.9
20260905183032 25 144 1.6 8.0 0.00 0.00 0.00 82 1016.9
20260905182522 25 76 3.2 8.0 0.00 0.00 0.00 79 1017.0
20260905182021 25 82 4.8 8.0 0.00 0.00 0.00 80 1017.0
20260905181531 25 97 1.6 11.3 0.00 0.00 0.00 82 1017.0
20260905181010 25 100 6.4 9.7 0.00 0.00 0.00 81 1017.0
20260905180507 25 86 1.6 9.7 0.00 0.00 0.00 82 1017.2
20260905180020 25 87 1.6 8.0 0.00 0.00 0.00 83 1017.2
20260905175519 24 64 4.8 8.0 0.00 0.00 0.00 84 1017.3
20260905175010 24 58 3.2 6.4 0.00 0.00 0.00 84 1017.3
20260905174527 23 86 0.0 8.0 0.00 0.00 0.00 85 1017.3
20260905174019 23 89 1.6 9.7 0.00 0.00 0.00 85 1017.4
20260905173512 23 79 3.2 9.7 0.00 0.00 0.00 85 1017.6
20260905173037 23 69 3.2 9.7 0.00 0.00 0.00 85 1017.8
20260905172515 23 97 3.2 9.7 0.00 0.00 0.00 85 1017.8
20260905172015 23 84 3.2 11.3 0.00 0.00 0.00 86 1017.8
20260905171530 23 94 6.4 11.3 0.00 0.00 0.00 85 1017.8
20260905171015 23 77 6.4 11.3 0.00 0.00 0.00 85 1018.0
20260905170516 23 99 4.8 11.3 0.00 0.00 0.00 86 1018.0
20260905170031 23 91 1.6 6.4 0.00 0.00 0.00 86 1018.1
20260905165508 23 93 0.0 6.4 0.00 0.00 0.00 87 1018.2
20260905165008 23 114 0.0 8.0 0.00 0.00 0.00 87 1018.1
20260905164518 22 130 3.2 8.0 0.00 0.00 0.00 88 1018.0
20260905164010 22 82 3.2 8.0 0.00 0.00 0.00 88 1018.0
20260905163508 22 87 4.8 11.3 0.00 0.00 0.00 88 1018.1
20260905163006 22 103 8.0 11.3 0.00 0.00 0.00 88 1018.1